PEGASUS DEB, 25442

Orbit data source: Space-Track

PEGASUS DEB, 25442 is space debris in LEO originally from a launch on Thu, 19 May 1994 UTC launched from the Air Force Western Test Range (AFWTR). Debris objects in space refer to the collection of defunct objects orbiting the Earth. Examples of debris include non-operational satellites, rocket bodies, and fragments generated from explosions, collisions, or faulty payload assembly.

Loading next visibility...
Identifier
25442, 1994-029ADX
Orbit
LEO
Country
Flag of USUS
Related business
Manufacturer
Unknown
Mission
Spacecraft
Bus & Motor
Unknown
Mass
Unknown
Launch date (UTC)
1994-05-19 (32 years ago)
Launch vehicle
Unknown
Launch site
Air Force Western Test Range (AFWTR)
Object type
Payload
Rocket body
Debris
Shape & HBR
Unknown shape, 0.1 m
Radar Cross Section
Small (<0.1 m²)

Expand to show TLE details & history
Last TLE update: 12 hours ago

TLE from 12 hours ago
0 PEGASUS DEB
1 25442U 94029ADX 26062.44031961  .00005674  00000-0  84574-3 0  9998
2 25442  81.7490  66.4687 0200507 237.1426 121.0337 14.61959897536879
Epoch: 2026-03-03T10:34Z
TLE epoch observation values (Epoch: 2026-03-03T10:34:03.614Z)
Latitude
-0.00005°
Longitude
106.73429°
Altitude
764.938 km
Speed
7.432 km/s
True Right ascension
04h 25m 52s
True Declination
0° 00' 00"
Sunlit
Object was in daylight at epoch
Visualization orbit readout
Latitude
Unknown
Longitude
Unknown
Altitude
Unknown
Speed
Unknown
Apparent Right ascension
Unknown
Apparent Declination
Unknown
Sunlit
N/A
Visualization observer readout
Local Sidereal Time
01:59:26
Azimuth
Unknown
Elevation
Unknown
Doppler factor
Unknown
Orbital elements
Apogee altitude
825.531 km
Perigee altitude
542.332 km
Semi-major axis
7,062.069 km
Eccentricity
0.02005
Inclination
81.749°
RAAN
66.4687°
Arg. of periapsis
237.1426°
True anomaly
122.97697°
Mean anomaly
121.0337°
Eccentric anomaly
122.00787°
Mean motion
3.65717 °/min
Orbital period
98.44 mins
BSTAR
0.00084574
Loading maneuver chart data...
Computing Atmospheric mass density...
Loading historical data...
Loading historical data...
Loading historical data...
Loading historical data...
Loading historical data...
Loading historical data...
Loading historical data...

Documentation

Showing up to 5 results
|